WORLDVIEW 2 DEB, 41742

Orbit data source: Space-Track

WORLDVIEW 2 DEB, 41742 is space debris in SSO originally from a launch on Thu, 08 Oct 2009 UTC launched from the Air Force Western Test Range (AFWTR). Debris objects in space refer to the collection of defunct objects orbiting the Earth. Examples of debris include non-operational satellites, rocket bodies, and fragments generated from explosions, collisions, or faulty payload assembly.

Loading next visibility...
Identifier
41742, 2009-055K
Orbit
SSO
Country
Flag of USUS
Related business
Manufacturer
Ball
Mission
Spacecraft
Bus & Motor
Unknown
Mass
Unknown
Launch date (UTC)
2009-10-08 (16 years ago)
Launch vehicle
Unknown
Launch site
Air Force Western Test Range (AFWTR)
Object type
Payload
Rocket body
Debris
Shape & HBR
Unknown shape, 0.1 m
Radar Cross Section
Small (<0.1 m²)

Expand to show TLE details & history
Last TLE update: 5 hours ago

TLE from 5 hours ago
0 WORLDVIEW 2 DEB
1 41742U 09055K   26037.19482098  .00008746  00000-0  19274-2 0  9996
2 41742  98.3521 130.9214 0007580 243.3840 116.6582 14.57610936503023
Epoch: 2026-02-06T04:40Z
TLE epoch observation values (Epoch: 2026-02-06T04:40:32.532Z)
Latitude
-0.00005°
Longitude
-75.55033°
Altitude
706.287 km
Speed
7.501 km/s
True Right ascension
08h 43m 41s
True Declination
0° 00' 00"
Sunlit
Object was in full shadow at epoch
Visualization orbit readout
Latitude
Unknown
Longitude
Unknown
Altitude
Unknown
Speed
Unknown
Apparent Right ascension
Unknown
Apparent Declination
Unknown
Sunlit
N/A
Visualization observer readout
Local Sidereal Time
11:16:44
Azimuth
Unknown
Elevation
Unknown
Doppler factor
Unknown
Orbital elements
Apogee altitude
703.354 km
Perigee altitude
692.626 km
Semi-major axis
7,076.127 km
Eccentricity
0.00076
Inclination
98.3521°
RAAN
130.9214°
Arg. of periapsis
243.384°
True anomaly
116.73579°
Mean anomaly
116.6582°
Eccentric anomaly
116.697°
Mean motion
3.64628 °/min
Orbital period
98.73 mins
BSTAR
0.0019274
Loading maneuver chart data...
Computing Atmospheric mass density...

Documentation

Showing up to 5 results
|